Date String (YYYY-MM-DD hh:mm:ss) UTC,Instrument flags,absolute air pressure of the measurement (hPa),sample flow rate (lpm),inlet stack bypass flow (lpm),air temperature of the measurement (°C),ambient temperature measured by the external sensor (°C),aerosol sample conditioner tube jacket temperature (°C),OPC LED temperature (°C),internal box temperature (°C),relative humidity of the measurement (%),span deviation,mass concentration of particles derived from Lorenz-Mie calculation of OPC scattering (μg/m³),mass concentration of particles derived from Lorenz-Mie calculation of OPC scattering (μg/m³),mass concentration of particles derived from Lorenz-Mie calculation of OPC scattering (μg/m³)
DateTimeUTC,F1_M11,P_M11,Q1_M11,Q2_M11,T1_M11,T2_M11,T3_M11,T4_M11,T5_M11,U1_M11,ZSPAN_M11,X0_M11,X2_M11,X1_M11
2023-06-30 14:00:00,SystemResetWarning,0834.0,5.01,000.00,029.6,027.9,000.0,038.3,031.1,29.8,0000.0,0008.31,0003.16,0002.34
2023-06-30 14:01:00,SystemResetWarning,0834.0,5.00,000.00,029.6,028.0,000.0,038.3,031.1,29.6,0000.0,0008.30,0003.09,0002.31
2023-06-30 14:02:00,SystemResetWarning,0833.9,5.00,000.00,029.6,028.1,000.0,038.3,031.2,29.5,0000.0,0008.11,0003.04,0002.29
2023-06-30 14:03:00,SystemResetWarning,0833.9,5.00,000.00,029.7,028.1,000.0,038.3,031.2,29.5,0000.0,0008.06,0003.06,0002.28
2023-06-30 14:04:00,SystemResetWarning,0833.9,5.00,000.00,029.7,028.2,000.0,038.3,031.2,29.4,0000.0,0008.02,0003.10,0002.27
2023-06-30 14:05:00,SystemResetWarning,0833.8,5.01,000.00,029.7,028.2,000.0,038.3,031.2,29.4,0000.0,0008.15,0003.14,0002.27
2023-06-30 14:06:00,SystemResetWarning,0833.8,5.00,000.00,029.7,028.3,000.0,038.3,031.3,29.2,0000.0,0007.96,0003.15,0002.26
2023-06-30 14:07:00,SystemResetWarning,0833.8,4.99,000.00,029.7,028.3,000.0,038.3,031.3,29.2,0000.0,0007.86,0003.11,0002.23
2023-06-30 14:08:00,SystemResetWarning,0833.8,5.00,000.00,029.7,028.4,000.0,038.3,031.3,29.4,0000.0,0008.35,0003.11,0002.23
2023-06-30 14:09:00,SystemResetWarning,0833.7,5.00,000.00,029.7,028.4,000.0,038.3,031.3,29.4,0000.0,0008.19,0003.10,0002.23
2023-06-30 14:10:00,SystemResetWarning,0833.7,5.00,000.00,029.7,028.4,000.0,038.3,031.3,29.3,0000.0,0008.27,0003.12,0002.22
2023-06-30 14:11:00,SystemResetWarning,0833.6,5.00,000.00,029.8,028.4,000.0,038.3,031.3,29.2,0000.0,0008.13,0003.14,0002.21
2023-06-30 14:12:00,SystemResetWarning,0833.7,5.00,000.00,029.8,028.4,000.0,038.3,031.3,29.1,0000.0,0007.50,0003.12,0002.19
2023-06-30 14:13:00,SystemResetWarning,0833.8,5.01,000.00,029.8,028.5,000.0,038.3,031.4,29.2,0000.0,0007.60,0003.13,0002.19
2023-06-30 14:14:00,SystemResetWarning,0833.8,5.00,000.00,029.8,028.5,000.0,038.3,031.4,29.3,0000.0,0007.70,0003.14,0002.19
2023-06-30 14:15:00,SystemResetWarning,0833.8,5.00,000.00,029.8,028.5,000.0,038.3,031.4,29.2,0000.0,0007.68,0003.12,0002.17
2023-06-30 14:16:00,SystemResetWarning,0833.9,5.00,000.00,029.8,028.5,000.0,038.4,031.4,29.2,0000.0,0007.67,0003.09,0002.17
2023-06-30 14:17:00,SystemResetWarning,0834.0,4.99,000.00,029.8,028.5,000.0,038.4,031.4,29.2,0000.0,0007.61,0003.05,0002.17
2023-06-30 14:18:00,SystemResetWarning,0834.1,5.00,000.00,029.9,028.6,000.0,038.4,031.4,29.2,0000.0,0007.49,0003.03,0002.18
2023-06-30 14:19:00,SystemResetWarning,0834.2,5.00,000.00,029.9,028.6,000.0,038.4,031.4,29.2,0000.0,0006.67,0003.00,0002.17
2023-06-30 14:20:00,SystemResetWarning,0834.3,5.00,000.00,029.9,028.6,000.0,038.4,031.4,29.4,0000.0,0006.32,0002.98,0002.16
2023-06-30 14:21:00,SystemResetWarning,0834.3,5.01,000.00,029.9,028.6,000.0,038.4,031.4,29.3,0000.0,0006.52,0002.97,0002.17
2023-06-30 14:22:00,SystemResetWarning,0834.4,5.00,000.00,029.9,028.6,000.0,038.4,031.5,29.4,0000.0,0006.39,0002.93,0002.17
2023-06-30 14:23:00,SystemResetWarning,0834.5,5.00,000.00,029.9,028.6,000.0,038.5,031.4,29.3,0000.0,0006.44,0002.92,0002.18
2023-06-30 14:24:00,SystemResetWarning,0834.6,5.01,000.00,029.9,028.6,000.0,038.5,031.4,29.5,0000.0,0006.45,0002.93,0002.18
2023-06-30 14:25:00,SystemResetWarning,0834.9,5.00,000.00,029.9,028.5,000.0,038.5,031.4,29.8,0000.0,0006.47,0002.93,0002.18
2023-06-30 14:26:00,SystemResetWarning,0835.1,5.00,000.00,029.9,028.5,000.0,038.5,031.4,30.1,0000.0,0006.81,0002.94,0002.19
2023-06-30 14:27:00,SystemResetWarning,0835.1,4.99,000.00,029.9,028.5,000.0,038.5,031.4,30.2,0000.0,0007.48,0003.02,0002.23
2023-06-30 14:28:00,SystemResetWarning,0835.1,4.99,000.00,029.9,028.5,000.0,038.5,031.4,30.3,0000.0,0007.88,0003.10,0002.24
2023-06-30 14:29:00,SystemResetWarning,0835.1,5.00,000.00,029.9,028.5,000.0,038.5,031.4,30.3,0000.0,0008.23,0003.17,0002.28
2023-06-30 14:30:00,SystemResetWarning,0835.0,5.01,000.00,029.9,028.5,000.0,038.5,031.4,30.0,0000.0,0008.42,0003.24,0002.32
2023-06-30 14:31:00,SystemResetWarning,0835.0,5.00,000.00,029.9,028.5,000.0,038.5,031.4,29.7,0000.0,0008.55,0003.29,0002.34
2023-06-30 14:32:00,SystemResetWarning,0834.5,5.00,000.00,029.9,028.5,000.0,038.5,031.4,29.5,0000.0,0008.03,0003.36,0002.36
2023-06-30 14:33:00,SystemResetWarning,0834.4,5.00,000.00,029.9,028.5,000.0,038.5,031.4,29.6,0000.0,0008.05,0003.39,0002.37
2023-06-30 14:34:00,SystemResetWarning,0834.2,4.99,000.00,029.9,028.5,000.0,038.5,031.4,29.7,0000.0,0008.18,0003.44,0002.40
2023-06-30 14:35:00,SystemResetWarning,0834.1,4.99,000.00,029.9,028.5,000.0,038.5,031.4,29.3,0000.0,0008.22,0003.47,0002.42
2023-06-30 14:36:00,SystemResetWarning,0833.9,5.00,000.00,029.9,028.5,000.0,038.5,031.4,29.2,0000.0,0008.73,0003.49,0002.45
2023-06-30 14:37:00,SystemResetWarning,0833.9,5.00,000.00,029.9,028.5,000.0,038.5,031.4,29.3,0000.0,0008.51,0003.49,0002.47
2023-06-30 14:38:00,SystemResetWarning,0834.0,5.01,000.00,029.9,028.5,000.0,038.5,031.4,29.6,0000.0,0008.49,0003.47,0002.44
2023-06-30 14:39:00,SystemResetWarning,0834.0,5.00,000.00,029.9,028.5,000.0,038.5,031.4,29.7,0000.0,0008.69,0003.43,0002.43
2023-06-30 14:40:00,SystemResetWarning,0834.1,5.00,000.00,029.9,028.5,000.0,038.5,031.4,29.7,0000.0,0008.68,0003.38,0002.42
2023-06-30 14:41:00,SystemResetWarning,0834.2,5.01,000.00,029.9,028.5,000.0,038.5,031.4,29.7,0000.0,0008.68,0003.36,0002.40
2023-06-30 14:42:00,SystemResetWarning,0834.1,4.99,000.00,029.9,028.5,000.0,038.5,031.4,29.8,0000.0,0008.64,0003.32,0002.37
2023-06-30 14:43:00,SystemResetWarning,0834.1,4.99,000.00,029.9,028.5,000.0,038.5,031.4,29.9,0000.0,0008.50,0003.29,0002.37
2023-06-30 14:44:00,SystemResetWarning,0834.1,5.00,000.00,029.9,028.5,000.0,038.5,031.4,29.9,0000.0,0008.52,0003.28,0002.37
2023-06-30 14:45:00,SystemResetWarning,0834.1,5.00,000.00,029.9,028.5,000.0,038.5,031.4,29.6,0000.0,0008.50,0003.26,0002.35
2023-06-30 14:46:00,SystemResetWarning,0834.1,5.00,000.00,029.9,028.5,000.0,038.5,031.4,29.5,0000.0,0008.51,0003.24,0002.33
2023-06-30 14:47:00,SystemResetWarning,0834.1,5.00,000.00,029.9,028.5,000.0,038.5,031.4,29.2,0000.0,0008.06,0003.24,0002.33
2023-06-30 14:48:00,SystemResetWarning,0834.1,5.00,000.00,029.9,028.5,000.0,038.5,031.4,29.3,0000.0,0008.21,0003.27,0002.32
2023-06-30 14:49:00,SystemResetWarning,0834.1,5.01,000.00,029.9,028.6,000.0,038.5,031.4,29.3,0000.0,0007.82,0003.28,0002.33
2023-06-30 14:50:00,SystemResetWarning,0834.0,5.00,000.00,030.0,028.6,000.0,038.5,031.5,29.0,0000.0,0007.15,0003.29,0002.34
2023-06-30 14:51:00,SystemResetWarning,0833.9,5.00,000.00,030.0,028.6,000.0,038.5,031.5,28.7,0000.0,0006.64,0003.29,0002.35
2023-06-30 14:52:00,SystemResetWarning,0833.9,4.99,000.00,030.0,028.6,000.0,038.6,031.5,28.6,0000.0,0007.70,0003.29,0002.35
2023-06-30 14:53:00,SystemResetWarning,0833.9,4.99,000.00,030.0,028.6,000.0,038.6,031.5,28.6,0000.0,0007.98,0003.28,0002.37
2023-06-30 14:54:00,SystemResetWarning,0833.9,4.99,000.00,030.0,028.6,000.0,038.6,031.5,28.4,0000.0,0008.80,0003.31,0002.39
2023-06-30 14:55:00,SystemResetWarning,0833.8,5.00,000.00,030.0,027.3,000.0,038.5,031.4,28.2,0000.0,0009.06,0003.35,0002.42
2023-06-30 14:56:00,SystemResetWarning,0833.9,5.00,000.00,029.9,025.6,000.0,038.3,031.1,28.1,0000.0,0009.14,0003.40,0002.45
2023-06-30 14:57:00,SystemResetWarning,0833.8,5.00,000.00,029.8,025.2,000.0,038.3,030.9,28.4,0000.0,0009.10,0003.41,0002.46
2023-06-30 14:58:00,SystemResetWarning,0833.8,5.02,000.00,029.6,025.5,000.0,038.3,030.7,28.7,0000.0,0009.06,0003.40,0002.45
2023-06-30 14:59:00,SystemResetWarning,0833.8,5.00,000.00,029.6,025.9,000.0,038.3,030.7,28.6,0000.0,0009.04,0003.36,0002.46
